Printer-friendly version

IAU Minor Planet Center

Minor Planet Center

MPEC 2006-J22 : 2006 JT

The following Minor Planet Electronic Circular may be linked-to from your own Web pages, but must not otherwise be redistributed electronically.


Read MPEC 2006-J21 Read MPEC 2006-J23


M.P.E.C. 2006-J22                                Issued 2006 May 4, 13:36 UT

     The Minor Planet Electronic Circulars contain information on unusual
         minor planets and routine data on comets.  They are published
   on behalf of Commission 20 of the International Astronomical Union by the
          Minor Planet Center, Smithsonian Astrophysical Observatory,
                          Cambridge, MA 02138, U.S.A.

                  Supported in part by the Brinson Foundation
                  Supported in part by the TABASGO Foundation
             Prepared using the Tamkin Foundation Computer Network

                              MPC@CFA.HARVARD.EDU
          URL http://cfa-www.harvard.edu/iau/mpc.html  ISSN 1523-6714

                                    2006 JT

Observations:
     K06J00T* C2006 05 03.17549 10 12 42.44 +11 48 20.9          20.1 V EJ022G96
     K06J00T  C2006 05 03.18067 10 12 42.55 +11 47 54.2          20.0 V EJ022G96
     K06J00T  C2006 05 03.18583 10 12 42.69 +11 47 27.5          19.5 V EJ022G96
     K06J00T  C2006 05 03.19113 10 12 42.84 +11 47 00.0          19.5 V EJ022G96
     K06J00T  C2006 05 03.22091 10 12 43.74 +11 44 25.2          19.9 V EJ022G96
     K06J00T  C2006 05 03.22341 10 12 43.77 +11 44 12.1          20.2 V EJ022G96
     K06J00T  C2006 05 03.22601 10 12 43.88 +11 43 58.5          19.9 V EJ022G96
     K06J00T  C2006 05 04.13477 10 13 16.75 +10 26 11.1          19.6 V EJ022G96
     K06J00T  C2006 05 04.14230 10 13 16.96 +10 25 33.0          19.5 V EJ022G96
     K06J00T  C2006 05 04.14986 10 13 17.22 +10 24 54.4          19.6 V EJ022G96
     K06J00T  C2006 05 04.15755 10 13 17.43 +10 24 15.5          19.9 V EJ022G96

Observer details:
G96 Mt. Lemmon Survey.  Observers E. J. Christensen, E. C. Beshore.  Measurers
    E. C. Beshore, E. J. Christensen, G. J. Garradd, A. R. Gibbs, A. D. Grauer,
    R. E. Hill, R. A. Kowalski, S. M. Larson, R. H. McNaught.  1.5-m reflector
    + CCD.

Orbital elements:
2006 JT                                                  Earth MOID = 0.2512 AU
Epoch 2006 Mar. 6.0 TT = JDT 2453800.5                  MPC
M 350.33475              (2000.0)            P               Q
n   0.25845857     Peri.  161.50334     -0.97655063     -0.02559172
a   2.4408556      Node    20.89701     -0.16829424     -0.52846600
e   0.4940590      Incl.   36.81928     +0.13426066     -0.84856865
P   3.81           H   19.0           G   0.15           U   9
Residuals in seconds of arc
060503 G96  0.9+  0.6-    060503 G96  0.8+  0.3-    060504 G96  0.3+  0.4-
060503 G96  0.4+  0.4-    060503 G96  0.2+  0.4-    060504 G96  0.8+  0.5-
060503 G96  0.3+  0.3-    060503 G96  0.7+  0.5-    060504 G96  0.4+  0.2-
060503 G96  0.3+  0.3-    060504 G96  0.6+  0.6-

Ephemeris:
2006 JT                  a,e,i = 2.44, 0.49, 37                  q = 1.2349
Date    TT    R. A. (2000) Decl.     Delta      r     Elong.  Phase     V
2006 05 05    10 13.82   +09 13.7    0.507    1.259   107.8    49.7    19.9
2006 05 15    10 21.89   -03 09.0    0.583    1.284   104.2    49.7    20.2
2006 05 25    10 32.71   -12 46.4    0.676    1.317   100.6    49.1    20.6
2006 06 04    10 45.88   -20 16.9    0.781    1.357    97.3    47.9    20.9
2006 06 14    11 01.17   -26 17.7    0.892    1.403    94.4    46.2    21.2
2006 06 24    11 18.50   -31 15.5    1.007    1.453    91.8    44.4    21.5
2006 07 04    11 37.88   -35 29.0    1.123    1.507    89.4    42.4    21.8
2006 07 14    11 59.34   -39 09.6    1.241    1.564    87.1    40.5    22.0

Kyle E. Smalley              (C) Copyright 2006 MPC           M.P.E.C. 2006-J22

Read MPEC 2006-J21 Read MPEC 2006-J23


Our Web policy. Index to the CBAT/MPC/ICQ pages.


Valid HTML 4.01!